Location: Ferchesar
(52.6477°N, 12.4298°E)
Time: 09:41:51
(UTC+01:00)

Tiros 1 despin weight - Pass Details

Date: 11 December 2021
Orbit: 592 x 641 km, 48.2° (Epoch: 19 January)

Event Time Altitude Azimuth Distance (km) Brightness Sun altitude
Rises 11:30:53 0° 234° (SW) 2,854 ? 14.0°
Reaches altitude 10° 11:33:20 10° 225° (SW) 1,945 ? 14.0°
Maximum altitude 11:37:21 34° 161° (SSE) 999 ? 14.1°
Drops below altitude 10° 11:41:20 10° 96° (E) 1,930 ? 14.2°
Sets 11:43:46 0° 87° (E) 2,829 ? 14.2°
